Find Starlink 11299

NORAD ID: 61058 Int'l Des: 2024-164 Owner: SPXS Country: US Constellation: starlink operational
別名: STARLINK-11299 [DTC] celestrak
LEOCIRCULAR

現在のビュー

3D地球を読み込み中...

About Starlink 11299

Starlink 11299 (NORAD 61058) is a starlink constellation satellite (v2 mini d2c) launched Sep 13, 2024 by SPXS of US. It operates in LEO, CIRCULAR orbit with a mass of 960.00 kg.

次回通過

Passes for default location (London). Set your location on the main map for personalized predictions.

高度履歴

Loading altitude history...

軌道要素

1 61058U 24164J 26238.10642134 .00001611 00000-0 18153-4 0 9990
2 61058 53.1583 196.4009 0000763 102.8159 257.2944 15.69706844112027
Epoch: Aug 26, 2026 • Age: 6 hours

現在のステータス

高度 361.2 km
遠地点 / 近地点 N/A
速度 7.70 km/s
衛星直下点 30.14°N, 113.66°E
打ち上げ日 Sep 13, 2024
運用期間 1.9 years
タイプ internet

技術仕様

分類 Payload
質量 960.00 kg
乾燥質量 910.00 kg
総質量 960.00 kg
長さ 0.30 m
直径 4.10 m
スパン 29.00 m
形状 Box + pan
製造者 SPXS
バスタイプ Starlink V2MD
フェーズステータス In Orbit
所有者/国 SPXS/US

Most Searched